Вернуться в каталог

STARLINK-4026

АктивенСвязьVLEO
NORAD 52600·PAYLOAD·🇺🇸 United States

Запущен May 14, 2022 с Cape Canaveral Space Force Station

Loading…

Ближайшие Пролёты (ближайшие 24 часа)

TLE

СвежийSource: CelesTrak SupGP

Эпоха: Sep 14, 2026, 14:13 UTC

1 52600C 22052C   26257.59284722  .00028965  00000+0  93154-3 0  2576
2 52600  53.1567 139.2887 0001489  93.6746 344.9400 15.31683866    19

Отслеживайте STARLINK-4026 в реальном времени с AllMySat

Download on the App Store